Time,TemperatureF,DewpointF,PressureIn,WindDirection,WindDirectionDegrees,WindSpeedMPH,WindSpeedGustMPH,Humidity,HourlyPrecipIn,Conditions,Clouds,dailyrainin,SolarRadiationWatts/m^2,SoftwareType,DateUTC
2013-07-24 00:11:00,63.0,48.0,-100.00,SSW,212,2.0,5.0,58,-99.99,,,0.00,0.000000,,2013-07-24 06:11:00,
2013-07-24 00:43:00,61.0,48.0,-100.00,South,176,2.0,7.0,63,0.00,,,0.00,0.000000,,2013-07-24 06:43:00,
2013-07-24 00:53:00,61.0,48.0,-100.00,South,176,2.0,7.0,63,0.00,,,0.00,0.000000,,2013-07-24 06:53:00,
2013-07-24 01:43:00,56.0,47.0,-100.00,SSE,153,1.0,4.0,71,0.00,,,0.00,0.000000,,2013-07-24 07:43:00,
2013-07-24 02:02:00,56.0,47.0,-100.00,SSE,153,1.0,4.0,71,0.00,,,0.00,0.000000,,2013-07-24 08:02:00,
2013-07-24 02:12:00,56.0,47.0,-100.00,SSE,153,1.0,4.0,71,0.00,,,0.00,0.000000,,2013-07-24 08:12:00,
2013-07-24 02:43:00,53.0,45.0,-100.00,SSE,155,1.0,3.0,73,0.00,,,0.00,0.000000,,2013-07-24 08:43:00,
2013-07-24 02:52:00,53.0,45.0,-100.00,SSE,155,1.0,3.0,73,0.00,,,0.00,0.000000,,2013-07-24 08:52:00,
2013-07-24 03:11:00,53.0,45.0,-100.00,SSE,155,1.0,3.0,73,0.00,,,0.00,0.000000,,2013-07-24 09:11:00,
2013-07-24 03:43:00,51.0,45.0,-100.00,East,93,1.0,3.0,79,-99.99,,,-99.99,0.000000,,2013-07-24 09:43:00,
2013-07-24 04:02:00,51.0,45.0,-100.00,East,93,1.0,3.0,79,-99.99,,,-99.99,0.000000,,2013-07-24 10:02:00,
2013-07-24 04:43:00,50.0,47.0,-100.00,SE,136,3.0,5.0,88,0.00,,,0.00,0.000000,,2013-07-24 10:43:00,
2013-07-24 04:53:00,50.0,47.0,-100.00,SE,136,3.0,5.0,88,0.00,,,0.00,0.000000,,2013-07-24 10:53:00,
2013-07-24 05:02:00,50.0,47.0,-100.00,SE,136,3.0,5.0,88,0.00,,,0.00,0.000000,,2013-07-24 11:02:00,
2013-07-24 05:11:00,50.0,47.0,-100.00,SE,136,3.0,5.0,88,0.00,,,0.00,0.000000,,2013-07-24 11:11:00,
2013-07-24 05:32:00,47.0,42.0,-100.00,WNW,283,2.0,5.0,84,0.00,,,0.00,0.000000,,2013-07-24 11:32:00,
2013-07-24 06:42:00,46.0,44.0,-100.00,East,88,1.0,5.0,92,0.00,,,0.00,2.000000,,2013-07-24 12:42:00,
2013-07-24 07:11:00,46.0,44.0,-100.00,East,88,1.0,5.0,92,0.00,,,0.00,2.000000,,2013-07-24 13:11:00,
2013-07-24 07:43:00,49.0,48.0,-100.00,South,175,1.0,3.0,97,0.00,,,0.00,35.000000,,2013-07-24 13:43:00,
2013-07-24 07:53:00,49.0,48.0,-100.00,South,175,1.0,3.0,97,0.00,,,0.00,35.000000,,2013-07-24 13:53:00,
2013-07-24 08:02:00,49.0,48.0,-100.00,South,175,1.0,3.0,97,0.00,,,0.00,35.000000,,2013-07-24 14:02:00,
2013-07-24 08:12:00,49.0,48.0,-100.00,South,175,1.0,3.0,97,0.00,,,0.00,35.000000,,2013-07-24 14:12:00,
2013-07-24 10:12:00,71.0,49.0,-100.00,West,279,3.0,4.0,46,0.00,,,0.00,407.000000,,2013-07-24 16:12:00,
2013-07-24 10:43:00,77.0,41.0,-100.00,WSW,247,3.0,6.0,28,0.00,,,0.00,596.000000,,2013-07-24 16:43:00,
2013-07-24 10:53:00,77.0,41.0,-100.00,WSW,247,3.0,6.0,28,0.00,,,0.00,596.000000,,2013-07-24 16:53:00,
2013-07-24 11:02:00,77.0,41.0,-100.00,WSW,247,3.0,6.0,28,0.00,,,0.00,596.000000,,2013-07-24 17:02:00,
2013-07-24 11:12:00,77.0,41.0,-100.00,WSW,247,3.0,6.0,28,0.00,,,0.00,596.000000,,2013-07-24 17:12:00,
2013-07-24 11:53:00,83.0,40.0,-100.00,SE,134,3.0,6.0,22,0.00,,,0.00,779.000000,,2013-07-24 17:53:00,
2013-07-24 12:02:00,83.0,40.0,-100.00,SE,134,3.0,6.0,22,0.00,,,0.00,779.000000,,2013-07-24 18:02:00,
2013-07-24 12:11:00,83.0,40.0,-100.00,SE,134,3.0,6.0,22,0.00,,,0.00,779.000000,,2013-07-24 18:11:00,
2013-07-24 12:33:00,89.0,45.0,-100.00,NW,315,3.0,7.0,22,0.00,,,0.00,929.000000,,2013-07-24 18:33:00,
2013-07-24 12:43:00,89.0,45.0,-100.00,NW,315,3.0,7.0,22,0.00,,,0.00,929.000000,,2013-07-24 18:43:00,
2013-07-24 12:52:00,89.0,45.0,-100.00,NW,315,3.0,7.0,22,0.00,,,0.00,929.000000,,2013-07-24 18:52:00,
2013-07-24 13:02:00,89.0,45.0,-100.00,NW,315,3.0,7.0,22,0.00,,,0.00,929.000000,,2013-07-24 19:02:00,
2013-07-24 13:12:00,89.0,45.0,-100.00,NW,315,3.0,7.0,22,0.00,,,0.00,929.000000,,2013-07-24 19:12:00,
2013-07-24 13:43:00,94.0,43.0,-100.00,NW,321,3.0,6.0,17,0.00,,,0.00,1032.000000,,2013-07-24 19:43:00,
2013-07-24 13:53:00,94.0,43.0,-100.00,NW,321,3.0,6.0,17,0.00,,,0.00,1032.000000,,2013-07-24 19:53:00,
2013-07-24 14:02:00,94.0,43.0,-100.00,NW,321,3.0,6.0,17,0.00,,,0.00,1032.000000,,2013-07-24 20:02:00,
2013-07-24 14:13:00,94.0,43.0,-100.00,NW,321,3.0,6.0,17,0.00,,,0.00,1032.000000,,2013-07-24 20:13:00,
2013-07-24 14:33:00,94.0,39.0,-100.00,NNE,22,6.0,10.0,15,0.00,,,0.00,1067.000000,,2013-07-24 20:33:00,
2013-07-24 14:43:00,94.0,39.0,-100.00,NNE,22,6.0,10.0,15,0.00,,,0.00,1067.000000,,2013-07-24 20:43:00,
2013-07-24 14:53:00,94.0,39.0,-100.00,NNE,22,6.0,10.0,15,0.00,,,0.00,1067.000000,,2013-07-24 20:53:00,
2013-07-24 15:02:00,94.0,39.0,-100.00,NNE,22,6.0,10.0,15,0.00,,,0.00,1067.000000,,2013-07-24 21:02:00,
2013-07-24 15:12:00,94.0,39.0,-100.00,NNE,22,6.0,10.0,15,0.00,,,0.00,1067.000000,,2013-07-24 21:12:00,
2013-07-24 15:44:00,99.0,37.0,-100.00,North,350,4.0,10.0,12,0.00,,,0.00,1061.000000,,2013-07-24 21:44:00,
2013-07-24 15:52:00,99.0,37.0,-100.00,North,350,4.0,10.0,12,0.00,,,0.00,1061.000000,,2013-07-24 21:52:00,
2013-07-24 16:02:00,99.0,37.0,-100.00,North,350,4.0,10.0,12,0.00,,,0.00,1061.000000,,2013-07-24 22:02:00,
2013-07-24 16:12:00,99.0,37.0,-100.00,North,350,4.0,10.0,12,0.00,,,0.00,1061.000000,,2013-07-24 22:12:00,
2013-07-24 16:43:00,98.0,35.0,-100.00,ENE,74,6.0,10.0,11,0.00,,,0.00,985.000000,,2013-07-24 22:43:00,
2013-07-24 16:53:00,98.0,35.0,-100.00,ENE,74,6.0,10.0,11,0.00,,,0.00,985.000000,,2013-07-24 22:53:00,
2013-07-24 17:02:00,98.0,35.0,-100.00,ENE,74,6.0,10.0,11,0.00,,,0.00,985.000000,,2013-07-24 23:02:00,
2013-07-24 17:12:00,98.0,35.0,-100.00,ENE,74,6.0,10.0,11,0.00,,,0.00,985.000000,,2013-07-24 23:12:00,
2013-07-24 17:43:00,99.0,35.0,-100.00,East,79,6.0,11.0,11,0.00,,,0.00,861.000000,,2013-07-24 23:43:00,
2013-07-24 17:52:00,99.0,35.0,-100.00,East,79,6.0,11.0,11,0.00,,,0.00,861.000000,,2013-07-24 23:52:00,
2013-07-24 18:02:00,99.0,35.0,-100.00,East,79,6.0,11.0,11,0.00,,,0.00,861.000000,,2013-07-25 00:02:00,
2013-07-24 18:11:00,99.0,35.0,-100.00,East,79,6.0,11.0,11,0.00,,,0.00,861.000000,,2013-07-25 00:11:00,
2013-07-24 18:43:00,99.0,30.0,-100.00,East,83,4.0,12.0,9,0.00,,,0.00,687.000000,,2013-07-25 00:43:00,
2013-07-24 18:53:00,99.0,30.0,-100.00,East,83,4.0,12.0,9,0.00,,,0.00,687.000000,,2013-07-25 00:53:00,
2013-07-24 19:02:00,99.0,30.0,-100.00,East,83,4.0,12.0,9,0.00,,,0.00,687.000000,,2013-07-25 01:02:00,
2013-07-24 19:12:00,99.0,30.0,-100.00,East,83,4.0,12.0,9,0.00,,,0.00,687.000000,,2013-07-25 01:12:00,
2013-07-24 20:33:00,90.0,38.0,-100.00,West,273,4.0,6.0,16,0.00,,,0.00,265.000000,,2013-07-25 02:33:00,
2013-07-24 20:43:00,90.0,38.0,-100.00,West,273,4.0,6.0,16,0.00,,,0.00,265.000000,,2013-07-25 02:43:00,
2013-07-24 20:53:00,90.0,38.0,-100.00,West,273,4.0,6.0,16,0.00,,,0.00,265.000000,,2013-07-25 02:53:00,
2013-07-24 21:02:00,90.0,38.0,-100.00,West,273,4.0,6.0,16,0.00,,,0.00,265.000000,,2013-07-25 03:02:00,
2013-07-24 21:12:00,90.0,38.0,-100.00,West,273,4.0,6.0,16,0.00,,,0.00,265.000000,,2013-07-25 03:12:00,
2013-07-24 22:43:00,73.0,37.0,-100.00,East,90,4.0,10.0,27,0.00,,,0.00,1.000000,,2013-07-25 04:43:00,
2013-07-24 22:53:00,73.0,37.0,-100.00,East,90,4.0,10.0,27,0.00,,,0.00,1.000000,,2013-07-25 04:53:00,
2013-07-24 23:02:00,73.0,37.0,-100.00,East,90,4.0,10.0,27,0.00,,,0.00,1.000000,,2013-07-25 05:02:00,
2013-07-24 23:12:00,73.0,37.0,-100.00,East,90,4.0,10.0,27,0.00,,,0.00,1.000000,,2013-07-25 05:12:00,
2013-07-24 23:43:00,67.0,38.0,-100.00,SE,139,5.0,11.0,34,0.00,,,0.00,0.000000,,2013-07-25 05:43:00,
2013-07-24 23:52:00,67.0,38.0,-100.00,SE,139,5.0,11.0,34,0.00,,,0.00,0.000000,,2013-07-25 05:52:00,